Weather History for KMLP - December, 2012

Change the Weather History Date:

Friday, December 14, 2012

  Actual Average (K3TH) Record (K3TH)
Temperature  
Mean Temperature 17 °F -  
Max Temperature 19 °F 31 °F 39 °F (1998)
Min Temperature 15 °F 25 °F 19 °F (1997)
Degree Days  
Heating Degree Days 48    
Moisture  
Dew Point 17 °F    
Average Humidity 94    
Maximum Humidity 100    
Minimum Humidity 84    
Precipitation  
Precipitation 0.03 in - - ()
Sea Level Pressure  
Sea Level Pressure 29.73 in    
Wind  
Wind Speed 4 mph (SSW)    
Max Wind Speed 9 mph    
Max Gust Speed -    
Visibility 5 miles    
Events Rain , Snow    
Averages and records for this station are not official NWS values.
T = Trace of Precipitation, MM = Missing Value Source: NWS Daily Summary

Daily Weather History Graph

Daily Weather History Graph

Search for Another Location

Airport or City:

Trip Planner

Search our weather history database for the weather conditions in past years. The results will help you decide how hot, cold, wet, or windy it might be!

Date:

Astronomy

Dec. 14, 2012 Rise Set
Actual Time 7:23 AM PST 3:52 PM PST
Civil Twilight 6:47 AM PST 4:27 PM PST
Nautical Twilight 6:08 AM PST 5:07 PM PST
Astronomical Twilight 5:30 AM PST 5:44 PM PST
Moon 8:27 AM PST (12/14) 5:54 PM PST (12/14)
Length of Visible Light 9h 40m
Length of Day
8h 28m
Waxing Crescent, 3% of the Moon is Illuminated
Dec 14
Waxing Crescent
Dec 19
First Quarter
Dec 28
Full
Jan 4
Last Quarter
Jan 11
New

Hourly Weather History & Observations

Time (PST) Temp. Windchill Dew Point Humidity Pressure Visibility Wind Dir Wind Speed Gust Speed Precip Events Conditions
12:53 AM 16.0 °F 4.4 °F 12.9 °F 88% 29.83 in 10.0 mi South 9.2 mph - N/A   Clear
1:53 AM 17.1 °F 8.7 °F 14.0 °F 88% 29.81 in 10.0 mi South 5.8 mph - N/A   Clear
2:53 AM 17.1 °F 8.7 °F 14.0 °F 88% 29.79 in 10.0 mi South 5.8 mph - N/A   Clear
3:53 AM 16.0 °F 6.3 °F 14.0 °F 92% 29.79 in 10.0 mi South 6.9 mph - N/A   Clear
4:53 AM 15.1 °F 5.2 °F 12.9 °F 91% 29.78 in 10.0 mi South 6.9 mph - N/A   Clear
5:53 AM 16.0 °F 7.4 °F 14.0 °F 92% 29.78 in 10.0 mi South 5.8 mph - N/A   Clear
6:53 AM 16.0 °F 6.3 °F 12.9 °F 88% 29.78 in 10.0 mi SSW 6.9 mph - N/A   Clear
7:53 AM 16.0 °F 8.8 °F 12.9 °F 88% 29.78 in 10.0 mi South 4.6 mph - N/A   Clear
8:53 AM 18.0 °F 11.1 °F 14.0 °F 84% 29.78 in 10.0 mi Variable 4.6 mph - N/A   Partly Cloudy
9:53 AM 18.0 °F 9.8 °F 14.0 °F 84% 29.79 in 10.0 mi WSW 5.8 mph - N/A   Mostly Cloudy
10:53 AM 19.0 °F 13.9 °F 16.0 °F 88% 29.77 in 10.0 mi Variable 3.5 mph - N/A   Scattered Clouds
11:53 AM 19.9 °F - 18.0 °F 92% 29.77 in 10.0 mi Calm Calm - N/A   Mostly Cloudy
12:53 PM 19.9 °F 14.9 °F 18.0 °F 92% 29.78 in 10.0 mi Variable 3.5 mph - N/A   Overcast
1:27 PM 19.4 °F - 17.6 °F 93% 29.60 in 10.0 mi Calm Calm - N/A   Overcast
1:39 PM 19.4 °F 14.3 °F 17.6 °F 93% 29.61 in 10.0 mi Variable 3.5 mph - N/A   Overcast
1:48 PM 19.4 °F 12.8 °F 17.6 °F 93% 29.61 in 8.0 mi Variable 4.6 mph - N/A   Overcast
1:53 PM 19.9 °F 14.9 °F 18.0 °F 92% 29.78 in 5.0 mi Variable 3.5 mph - 0.00 in Snow Light Snow
2:10 PM 19.4 °F - 17.6 °F 93% 29.61 in 3.0 mi Calm Calm - 0.00 in Snow Light Snow
2:23 PM 19.4 °F - 17.6 °F 93% 29.62 in 2.5 mi Calm Calm - 0.00 in   Overcast
2:30 PM 19.4 °F - 17.6 °F 93% 29.62 in 1.2 mi Calm Calm - 0.00 in   Overcast
2:34 PM 19.4 °F - 17.6 °F 93% 29.62 in 1.5 mi Calm Calm - 0.00 in Snow Light Snow
2:53 PM 19.0 °F - 18.0 °F 96% 29.80 in 4.0 mi Calm Calm - 0.00 in Snow Light Snow
2:58 PM 19.4 °F - 17.6 °F 93% 29.63 in 2.5 mi Calm Calm - 0.00 in Snow Light Snow
3:04 PM 19.4 °F - 17.6 °F 93% 29.63 in 1.8 mi Calm Calm - 0.00 in Snow Light Snow
3:12 PM 19.4 °F - 17.6 °F 93% 29.63 in 1.2 mi Calm Calm - 0.00 in Snow Light Snow
3:39 PM 19.4 °F - 17.6 °F 93% 29.64 in 1.2 mi Calm Calm - 0.01 in Snow Light Snow
3:49 PM 19.4 °F - 17.6 °F 93% 29.64 in 1.5 mi Calm Calm - 0.01 in Snow Light Snow
3:53 PM 19.0 °F - 18.0 °F 96% 29.82 in 1.5 mi Calm Calm - 0.01 in Snow Light Snow
4:03 PM 19.4 °F - 17.6 °F 93% 29.65 in 2.0 mi Calm Calm - 0.00 in Snow Light Snow
4:25 PM 19.4 °F - 17.6 °F 93% 29.65 in 1.8 mi Calm Calm - 0.00 in Snow Light Snow
4:30 PM 19.4 °F - 17.6 °F 93% 29.65 in 2.0 mi Calm Calm - 0.00 in Snow Light Snow
4:53 PM 19.0 °F 13.9 °F 17.1 °F 92% 29.84 in 2.5 mi SW 3.5 mph - 0.01 in Snow Light Snow
5:29 PM 17.6 °F - 17.6 °F 100% 29.66 in 2.5 mi Calm Calm - 0.00 in Snow Light Snow
5:44 PM 17.6 °F - 17.6 °F 100% 29.67 in 1.0 mi Calm Calm - 0.00 in Snow Light Snow
5:51 PM 17.6 °F - 17.6 °F 100% 29.67 in 0.8 mi Calm Calm - 0.00 in Snow Light Snow
5:53 PM 18.0 °F - 17.1 °F 96% 29.86 in 1.0 mi Calm Calm - 0.00 in Snow Light Snow
6:05 PM 17.6 °F - 17.6 °F 100% 29.67 in 1.8 mi Calm Calm - 0.00 in Snow Light Snow
6:07 PM 17.6 °F - 17.6 °F 100% 29.67 in 2.5 mi Calm Calm - 0.00 in Snow Light Snow
6:14 PM 17.6 °F - 17.6 °F 100% 29.67 in 5.0 mi Calm Calm - 0.00 in Snow Light Snow
6:45 PM 17.6 °F - 17.6 °F 100% 29.68 in 2.5 mi Calm Calm - 0.00 in Snow Light Snow
6:53 PM 18.0 °F - 17.1 °F 96% 29.86 in 2.0 mi Calm Calm - 0.00 in Snow Light Snow
7:04 PM 17.6 °F - 17.6 °F 100% 29.68 in 2.5 mi Calm Calm - 0.00 in Snow Light Snow
7:11 PM 17.6 °F - 17.6 °F 100% 29.68 in 3.0 mi Calm Calm - 0.00 in Snow Light Snow
7:53 PM 18.0 °F 9.8 °F 17.1 °F 96% 29.88 in 10.0 mi Variable 5.8 mph - 0.01 in   Overcast
8:00 PM 17.6 °F 12.3 °F 17.6 °F 100% 29.69 in 10.0 mi Variable 3.5 mph - N/A   Overcast
8:41 PM 17.6 °F 10.7 °F 17.6 °F 100% 29.70 in 10.0 mi Variable 4.6 mph - N/A   Overcast
8:53 PM 18.0 °F 12.7 °F 17.1 °F 96% 29.88 in 10.0 mi WSW 3.5 mph - N/A   Overcast
9:07 PM 19.4 °F - 17.6 °F 93% 29.70 in 9.0 mi Calm Calm - N/A   Overcast
9:53 PM 19.0 °F 12.3 °F 18.0 °F 96% 29.88 in 6.0 mi Variable 4.6 mph - 0.00 in   Overcast
10:18 PM 19.4 °F - 17.6 °F 93% 29.72 in 2.5 mi Calm Calm - 0.00 in Rain Light Freezing Rain
10:25 PM 19.4 °F - 17.6 °F 93% 29.72 in 1.2 mi Calm Calm - 0.00 in Rain Light Freezing Rain
10:35 PM 19.4 °F 12.8 °F 17.6 °F 93% 29.71 in 0.8 mi SW 4.6 mph - 0.00 in Rain Light Freezing Rain
10:46 PM 19.4 °F 14.3 °F 17.6 °F 93% 29.71 in 1.2 mi SW 3.5 mph - 0.00 in Rain Light Freezing Rain
10:53 PM 19.0 °F 13.9 °F 18.0 °F 96% 29.89 in 1.5 mi Variable 3.5 mph - 0.00 in Snow Light Snow
10:58 PM 19.4 °F - 17.6 °F 93% 29.72 in 3.0 mi Calm Calm - 0.00 in   Overcast
11:53 PM 18.0 °F 11.1 °F 17.1 °F 96% 29.90 in 10.0 mi SW 4.6 mph - 0.00 in   Overcast